Location: Perryvale
(54.4667°N, 113.3833°W)
Time: 00:20:22
(UTC+00:00)

Vanguard 1 - Pass Details

Date: 24 May 2024
Orbit: 652 x 3825 km, 34.2° (Epoch: 13 June)

Event Time Altitude Azimuth Distance (km) Brightness Sun altitude
Rises 11:02:43 0° 267° (W) 6,960 13.9 -2.1°
Maximum altitude 11:17:29 10° 228° (SW) 6,760 13.7 -0.4°
Drops below altitude 10° 11:17:32 10° 228° (SW) 6,761 13.7 -0.4°
Sets 11:34:20 0° 190° (S) 7,884 14.2 1.5°
